Terminal Aerodrome Forecast
Issued by NWS Pueblo, CO

Home | Current Version | Previous Version | Text Only | Print | Product List | Glossary On
Versions: 1 2 3 4 5 6 7 8 9 10 11 12 13 14 15 16 17 18 19 20 21 22 23 24 25 26 27 28 29 30 31 32 33 34 35
000
FTUS45 KPUB 222342
TAFALS
TAF
KALS 222342Z 2300/2324 34012G22KT P6SM VCSH SCT060 BKN100
     FM230300 34012KT P6SM VCSH SCT030 BKN060
     FM230700 35010KT P6SM SCT030 BKN080
     FM231700 01012G22KT P6SM FEW070 SCT120=

USA.gov is the U.S. government's official web portal to all federal, state and local government web resources and services.